Temp
-10 -10 -9 -9 -9 -10 -10 -11 -11 -12 -12 -12 -12 -12 -12 -12 -13 -13 -13 -13 -13 -12 -13 -13 -13 -13 -12 -12 -12 -12 -11 -11 -12 -12 -11 -11 -12 -11 -11 -11 -11 -11 -12 -12 -12
-10 -10 -9 -9 -10 -10 -10 -11 -11 -12 -12 -11 -12 -12 -12 -12 -13 -13 -13 -13 -13 -13 -13 -13 -13 -13 -12 -13 -12 -12 -12 -12 -12 -12 -12 -12 -11 -11 -11 -12 -11 -11 -12 -12 -12
-10 -10 -10 -10 -10 -10 -10 -11 -11 -12 -12 -12 -12 -12 -12 -13 -13 -13 -13 -14 -13 -13 -13 -13 -13 -13 -13 -13 -12 -12 -12 -12 -12 -12 -12 -12 -12 -12 -12 -11 -12 -11 -10 -12 -12
-10 -10 -10 -10 -10 -10 -11 -11 -11 -12 -12 -12 -12 -13 -13 -13 -13 -13 -13 -13 -14 -13 -13 -13 -13 -13 -13 -13 -13 -13 -12 -13 -12 -12 -12 -12 -12 -12 -12 -12 -11 -12 -12 -12 -12
-10 -10 -10 -10 -10 -10 -11 -12 -12 -12 -12 -12 -13 -13 -13 -13 -14 -14 -14 -14 -14 -14 -14 -13 -13 -13 -13 -13 -13 -13 -13 -13 -13 -12 -13 -12 -12 -13 -12 -12 -12 -12 -12 -12 -12
-10 -10 -10 -10 -10 -11 -11 -12 -12 -12 -13 -13 -13 -13 -13 -13 -14 -14 -14 -14 -14 -14 -14 -14 -14 -14 -14 -14 -13 -13 -13 -14 -14 -13 -13 -13 -13 -12 -12 -12 -12 -12 -12 -13 -13
-10 -10 -11 -10 -11 -11 -12 -12 -12 -13 -13 -13 -13 -14 -14 -14 -14 -14 -14 -15 -15 -15 -14 -14 -14 -14 -14 -14 -14 -14 -14 -14 -13 -13 -13 -13 -12 -12 -13 -13 -12 -12 -12 -12 -13
-11 -11 -11 -11 -11 -12 -13 -13 -13 -13 -13 -13 -14 -14 -14 -14 -14 -15 -15 -15 -15 -15 -15 -15 -15 -15 -14 -14 -14 -14 -14 -14 -14 -14 -14 -13 -12 -13 -13 -13 -12 -12 -12 -12 -12
-11 -11 -11 -12 -12 -12 -13 -13 -13 -13 -13 -13 -14 -14 -14 -14 -15 -15 -15 -15 -15 -15 -15 -15 -16 -15 -15 -15 -15 -14 -14 -14 -14 -14 -14 -13 -12 -13 -12 -13 -13 -13 -12 -12 -12
-12 -11 -12 -12 -13 -13 -13 -13 -13 -13 -13 -14 -14 -14 -14 -15 -16 -16 -16 -16 -16 -15 -15 -16 -16 -16 -16 -15 -15 -14 -14 -14 -14 -14 -14 -13 -13 -13 -13 -13 -13 -13 -13 -12 -12
-12 -12 -12 -12 -13 -13 -13 -13 -13 -13 -13 -14 -15 -15 -16 -16 -16 -16 -16 -16 -16 -16 -16 -16 -16 -16 -16 -15 -15 -15 -15 -15 -15 -15 -15 -14 -13 -13 -13 -13 -13 -13 -13 -12 -13
-12 -13 -12 -13 -13 -13 -13 -13 -13 -13 -14 -14 -15 -16 -16 -17 -17 -17 -17 -17 -17 -17 -17 -17 -17 -17 -17 -17 -16 -15 -15 -15 -15 -15 -15 -14 -14 -13 -14 -13 -13 -13 -13 -13 -13
-13 -13 -13 -13 -13 -13 -14 -13 -13 -14 -14 -14 -15 -16 -16 -17 -17 -17 -17 -17 -17 -17 -17 -17 -17 -17 -17 -17 -16 -17 -16 -16 -16 -16 -16 -15 -14 -15 -15 -14 -13 -13 -13 -13 -13
-13 -13 -13 -14 -13 -14 -14 -13 -14 -14 -14 -14 -15 -15 -17 -17 -17 -17 -17 -17 -17 -17 -17 -17 -17 -18 -18 -18 -17 -17 -17 -16 -16 -17 -17 -16 -15 -15 -15 -16 -15 -14 -14 -14 -14
-14 -13 -13 -14 -14 -14 -14 -14 -14 -14 -14 -15 -15 -16 -17 -17 -17 -16 -16 -16 -17 -17 -18 -18 -19 -19 -19 -18 -18 -18 -17 -17 -17 -17 -17 -17 -17 -15 -16 -16 -16 -16 -15 -15 -15
-14 -14 -14 -14 -14 -14 -14 -14 -14 -14 -15 -15 -16 -16 -17 -17 -17 -17 -16 -16 -16 -18 -19 -19 -19 -19 -19 -19 -18 -18 -18 -18 -18 -18 -17 -17 -17 -16 -16 -16 -16 -16 -16 -16 -15
-14 -14 -14 -14 -14 -14 -14 -14 -14 -15 -15 -15 -16 -16 -17 -18 -18 -17 -17 -17 -17 -18 -19 -20 -20 -20 -19 -18 -18 -18 -18 -18 -18 -18 -18 -18 -18 -16 -16 -17 -16 -16 -16 -16 -15
-14 -14 -14 -15 -14 -15 -14 -15 -14 -15 -15 -15 -16 -17 -18 -18 -18 -18 -17 -17 -17 -18 -19 -19 -19 -19 -19 -19 -18 -18 -19 -19 -18 -20 -20 -20 -18 -18 -18 -18 -18 -17 -16 -16 -16
-15 -14 -14 -15 -15 -15 -15 -15 -15 -15 -15 -15 -16 -17 -18 -18 -18 -18 -17 -17 -18 -19 -19 -19 -19 -19 -19 -19 -19 -18 -18 -19 -18 -20 -20 -20 -21 -20 -20 -20 -20 -19 -19 -17 -17
-15 -15 -14 -15 -15 -15 -15 -15 -15 -15 -16 -16 -16 -17 -18 -18 -18 -18 -17 -18 -18 -19 -19 -19 -19 -19 -20 -19 -18 -18 -18 -19 -19 -19 -19 -20 -20 -20 -20 -21 -21 -21 -21 -19 -17
-15 -15 -15 -15 -15 -15 -15 -15 -15 -15 -16 -16 -16 -16 -18 -18 -18 -17 -17 -18 -19 -20 -19 -19 -19 -19 -19 -19 -18 -19 -19 -19 -19 -19 -20 -20 -20 -21 -21 -21 -21 -22 -22 -22 -20
-15 -15 -15 -15 -15 -15 -15 -15 -15 -16 -16 -16 -16 -16 -18 -18 -18 -17 -17 -18 -19 -20 -20 -19 -19 -20 -19 -18 -18 -19 -19 -19 -20 -20 -20 -20 -20 -21 -21 -20 -21 -22 -22 -22 -21
-16 -15 -15 -15 -15 -16 -15 -15 -15 -16 -16 -16 -16 -16 -17 -18 -18 -17 -17 -18 -18 -20 -20 -19 -19 -19 -18 -18 -19 -19 -19 -19 -19 -19 -20 -20 -20 -20 -21 -20 -21 -20 -20 -18 -19
-16 -15 -15 -16 -16 -16 -16 -15 -16 -15 -16 -16 -16 -16 -17 -18 -18 -17 -17 -17 -18 -20 -20 -19 -20 -20 -18 -18 -18 -18 -19 -19 -18 -18 -19 -20 -20 -20 -20 -20 -19 -19 -17 -18 -18
-16 -16 -16 -16 -16 -16 -16 -16 -16 -16 -16 -16 -16 -16 -17 -18 -18 -18 -17 -17 -17 -19 -20 -20 -20 -20 -19 -19 -18 -17 -18 -19 -18 -18 -18 -19 -20 -20 -20 -20 -19 -18 -17 -17 -17
-17 -16 -16 -16 -16 -16 -16 -16 -16 -16 -16 -16 -16 -16 -16 -18 -18 -18 -18 -17 -17 -18 -20 -20 -20 -20 -19 -19 -18 -18 -17 -18 -18 -18 -18 -18 -19 -20 -19 -19 -19 -18 -17 -17 -16
-17 -16 -16 -16 -16 -16 -17 -16 -16 -16 -16 -16 -16 -16 -16 -17 -18 -18 -18 -17 -17 -18 -20 -20 -20 -20 -20 -20 -19 -18 -18 -18 -17 -17 -18 -18 -19 -19 -19 -19 -18 -18 -17 -16 -16
Height
5803 5802 5797 5793 5790 5785 5781 5777 5773 5769 5767 5765 5763 5760 5759 5759 5758 5757 5756 5756 5756 5756 5756 5758 5759 5760 5762 5764 5765 5767 5767 5774 5779 5781 5784 5782 5785 5784 5786 5788 5792 5795 5799 5804 5805
5801 5798 5794 5788 5786 5782 5776 5771 5768 5765 5761 5759 5755 5754 5753 5751 5750 5749 5749 5748 5748 5748 5748 5749 5750 5752 5753 5755 5756 5758 5760 5769 5771 5773 5776 5776 5778 5780 5783 5783 5786 5790 5794 5797 5800
5798 5794 5790 5786 5780 5777 5770 5766 5761 5759 5755 5752 5749 5748 5747 5745 5743 5742 5741 5739 5739 5739 5739 5739 5741 5742 5745 5746 5748 5751 5754 5760 5763 5765 5767 5769 5772 5775 5777 5778 5780 5783 5786 5790 5793
5794 5790 5785 5781 5775 5771 5766 5762 5758 5755 5751 5747 5742 5742 5741 5738 5737 5735 5733 5731 5730 5730 5730 5730 5732 5733 5735 5736 5739 5740 5745 5750 5754 5756 5758 5761 5763 5766 5771 5773 5775 5778 5782 5784 5788
5790 5786 5782 5777 5773 5768 5763 5758 5754 5750 5747 5743 5738 5736 5735 5732 5729 5727 5724 5723 5721 5721 5722 5722 5723 5725 5725 5727 5730 5731 5736 5740 5743 5747 5751 5753 5755 5760 5762 5766 5770 5771 5775 5778 5782
5787 5782 5777 5774 5768 5762 5757 5753 5750 5747 5741 5737 5734 5730 5728 5725 5721 5718 5716 5714 5713 5713 5713 5713 5715 5716 5717 5719 5721 5722 5727 5732 5736 5740 5741 5744 5748 5750 5756 5759 5761 5766 5769 5772 5776
5782 5777 5773 5769 5764 5758 5753 5749 5745 5742 5738 5734 5730 5726 5723 5720 5716 5712 5709 5707 5705 5705 5705 5705 5706 5707 5710 5710 5712 5713 5717 5720 5725 5730 5732 5735 5739 5741 5749 5750 5752 5759 5763 5766 5770
5777 5774 5770 5765 5760 5754 5750 5745 5740 5739 5735 5730 5727 5722 5719 5715 5711 5707 5703 5701 5699 5698 5699 5699 5698 5699 5701 5702 5704 5706 5709 5712 5717 5720 5724 5726 5734 5731 5736 5741 5744 5748 5753 5757 5761
5772 5769 5765 5760 5754 5748 5746 5743 5739 5736 5732 5727 5723 5718 5714 5709 5705 5702 5699 5696 5693 5692 5692 5693 5694 5692 5693 5695 5698 5700 5702 5705 5708 5710 5713 5718 5718 5724 5725 5733 5736 5740 5745 5748 5753
5768 5764 5761 5756 5751 5745 5744 5740 5737 5734 5729 5724 5719 5715 5709 5703 5698 5694 5691 5690 5688 5688 5688 5688 5687 5687 5687 5689 5691 5693 5695 5696 5700 5702 5705 5709 5711 5718 5719 5725 5728 5731 5735 5739 5744
5763 5758 5754 5752 5747 5741 5740 5738 5737 5732 5726 5720 5715 5708 5702 5697 5692 5687 5685 5683 5682 5682 5683 5682 5681 5681 5682 5683 5684 5686 5687 5688 5690 5692 5693 5697 5701 5706 5711 5715 5720 5724 5726 5731 5735
5757 5754 5750 5747 5743 5738 5736 5735 5732 5729 5724 5717 5711 5704 5699 5693 5688 5683 5680 5679 5677 5676 5676 5677 5676 5676 5676 5676 5677 5677 5679 5681 5682 5681 5683 5686 5692 5697 5702 5706 5711 5714 5717 5720 5725
5751 5748 5746 5741 5739 5735 5733 5732 5728 5725 5721 5714 5708 5702 5695 5690 5684 5680 5677 5674 5672 5671 5670 5669 5670 5669 5669 5669 5670 5670 5671 5672 5674 5673 5675 5676 5683 5686 5689 5694 5698 5705 5709 5710 5714
5747 5743 5739 5739 5738 5733 5733 5732 5728 5724 5718 5712 5704 5699 5692 5686 5682 5677 5672 5671 5667 5666 5664 5663 5663 5663 5662 5661 5663 5663 5663 5664 5664 5665 5666 5668 5667 5676 5679 5685 5688 5692 5696 5700 5702
5742 5740 5737 5734 5732 5732 5731 5729 5724 5720 5714 5711 5702 5695 5689 5683 5677 5672 5668 5665 5663 5661 5660 5660 5658 5657 5656 5657 5656 5657 5657 5657 5657 5656 5655 5660 5655 5666 5673 5675 5680 5679 5681 5684 5686
5737 5737 5733 5730 5728 5727 5728 5724 5722 5719 5712 5707 5699 5692 5685 5680 5674 5668 5664 5661 5659 5657 5656 5655 5655 5654 5653 5652 5651 5651 5650 5648 5647 5645 5644 5646 5642 5653 5660 5661 5658 5660 5660 5664 5671
5733 5732 5728 5727 5725 5725 5724 5722 5720 5715 5710 5704 5695 5689 5682 5676 5671 5665 5660 5657 5655 5654 5654 5652 5651 5650 5648 5647 5644 5643 5641 5639 5638 5634 5634 5631 5623 5643 5641 5635 5638 5639 5646 5649 5656
5728 5726 5725 5723 5723 5723 5721 5720 5716 5713 5707 5699 5691 5685 5679 5673 5668 5663 5658 5655 5651 5649 5649 5649 5650 5645 5643 5640 5639 5638 5634 5631 5624 5619 5617 5615 5609 5617 5612 5618 5617 5616 5624 5632 5639
5724 5720 5718 5718 5717 5717 5717 5715 5713 5709 5704 5697 5689 5682 5675 5670 5665 5660 5656 5652 5648 5646 5647 5646 5646 5642 5640 5635 5633 5630 5627 5625 5620 5616 5610 5608 5604 5602 5600 5600 5595 5598 5601 5613 5621
5718 5715 5714 5712 5712 5713 5714 5713 5710 5706 5701 5694 5686 5679 5671 5667 5663 5658 5653 5650 5646 5644 5643 5644 5644 5640 5636 5633 5628 5628 5628 5624 5620 5616 5611 5608 5603 5600 5596 5589 5584 5581 5581 5583 5602
5711 5709 5709 5708 5709 5708 5709 5709 5707 5703 5698 5692 5683 5676 5670 5666 5662 5656 5652 5648 5643 5641 5641 5641 5640 5638 5633 5630 5628 5627 5624 5621 5618 5614 5608 5604 5601 5595 5586 5578 5572 5570 5566 5569 5578
5704 5704 5703 5705 5706 5704 5705 5705 5705 5700 5695 5690 5682 5675 5670 5665 5661 5656 5651 5646 5641 5639 5639 5637 5637 5634 5631 5629 5626 5625 5622 5618 5614 5611 5605 5600 5597 5588 5580 5576 5573 5571 5568 5571 5575
5699 5700 5699 5700 5701 5699 5701 5701 5701 5697 5692 5688 5680 5674 5670 5665 5661 5655 5651 5645 5640 5639 5637 5636 5634 5632 5630 5629 5626 5621 5619 5615 5610 5607 5605 5599 5594 5587 5583 5580 5576 5575 5574 5577 5586
5694 5695 5694 5695 5695 5696 5696 5697 5697 5694 5688 5685 5678 5673 5670 5664 5660 5654 5649 5644 5639 5637 5636 5635 5633 5629 5627 5625 5623 5618 5616 5613 5610 5605 5601 5599 5594 5590 5585 5585 5583 5582 5585 5587 5592
5689 5688 5690 5689 5689 5690 5693 5695 5692 5691 5685 5682 5677 5672 5669 5663 5658 5654 5648 5643 5638 5635 5635 5634 5632 5628 5627 5624 5620 5618 5614 5612 5609 5607 5603 5599 5595 5593 5592 5590 5588 5589 5591 5591 5595
5683 5682 5682 5684 5685 5686 5688 5690 5689 5686 5682 5679 5675 5670 5667 5662 5658 5653 5648 5642 5637 5632 5632 5631 5629 5627 5626 5623 5619 5618 5615 5613 5610 5608 5603 5600 5598 5595 5597 5595 5592 5593 5594 5592 5598
5675 5673 5676 5678 5679 5681 5683 5686 5685 5682 5679 5676 5673 5669 5666 5661 5656 5652 5647 5642 5637 5631 5628 5629 5627 5626 5624 5621 5620 5620 5617 5615 5612 5604 5603 5601 5601 5601 5600 5598 5597 5596 5596 5596 5598
Wind_Speed
19 23 24 28 34 35 36 35 32 29 29 29 32 33 33 31 33 34 35 35 35 33 33 33 34 34 36 37 37 37 39 33 27 29 27 30 28 27 31 35 32 30 28 24 26
22 25 28 32 34 39 37 36 32 30 28 28 28 31 32 33 34 33 33 35 36 35 38 37 35 36 35 36 39 39 40 34 33 33 31 33 33 31 25 30 36 35 33 33 29
24 28 31 35 38 42 40 37 32 31 29 28 30 32 32 32 33 33 33 34 34 35 36 37 39 38 41 37 38 39 39 36 36 36 36 37 36 36 32 29 30 38 39 37 36
26 28 33 37 41 42 40 35 34 32 30 30 31 30 31 31 33 33 33 34 35 36 37 37 37 39 39 41 41 41 41 39 40 39 39 39 39 40 35 33 29 29 37 40 36
28 31 35 39 44 43 38 34 31 28 29 30 32 31 31 33 35 34 33 34 34 33 36 38 38 38 39 40 40 44 43 42 41 41 39 41 41 39 39 36 33 30 30 38 40
33 32 37 42 42 39 35 32 30 29 26 27 29 29 29 30 29 30 29 28 30 33 34 35 37 37 37 38 39 41 40 41 40 40 41 43 42 45 42 39 39 34 30 34 41
33 34 37 42 40 38 33 30 29 26 26 28 29 29 28 27 27 25 24 23 22 24 28 30 33 35 37 37 37 39 38 39 39 41 42 44 45 47 43 44 44 38 34 31 36
30 33 41 40 39 35 32 30 26 26 27 28 29 30 28 27 27 26 22 20 21 22 25 23 26 29 32 35 36 37 37 37 37 39 41 45 43 47 47 47 47 44 40 37 34
28 35 37 37 35 31 28 27 25 26 26 28 31 32 32 31 28 26 24 23 22 20 22 25 21 25 28 31 33 34 35 36 36 38 41 42 47 48 51 48 49 47 45 42 40
31 34 36 33 33 29 26 23 23 26 27 30 33 35 34 35 31 29 26 23 23 23 23 22 24 26 26 28 31 32 33 35 35 37 39 41 45 45 49 48 49 49 48 47 44
32 31 31 34 31 22 21 21 23 25 31 33 34 32 30 29 31 30 28 29 27 26 24 24 25 26 27 29 31 32 34 36 35 37 39 42 44 44 47 49 50 50 51 50 48
30 31 29 31 26 19 18 20 21 26 29 33 33 32 28 27 26 25 25 25 25 23 21 21 23 23 25 28 31 35 36 37 36 38 42 43 44 45 45 48 49 52 54 54 53
27 27 28 27 20 17 17 17 21 25 28 28 33 31 28 26 25 25 24 23 22 22 22 22 23 23 24 28 30 33 36 36 38 41 40 43 45 44 45 48 52 53 54 57 57
27 26 25 24 19 15 15 17 21 22 25 29 30 29 28 27 24 24 25 24 23 20 20 22 23 23 24 27 28 31 33 38 39 39 38 38 46 41 44 41 49 53 55 56 59
26 26 25 22 14 14 14 16 18 20 23 26 29 31 28 28 25 25 23 23 21 20 19 18 19 19 22 24 26 28 31 35 40 44 47 46 51 47 42 41 38 41 50 55 58
24 27 24 18 13 12 14 14 18 21 23 26 30 32 31 30 30 26 22 21 20 19 18 17 16 19 22 24 27 30 33 36 43 49 55 53 58 49 43 45 48 49 51 56 62
23 25 23 18 14 12 13 15 18 21 24 28 32 35 34 30 29 27 23 20 21 17 13 14 17 18 23 24 27 29 32 35 39 44 49 50 57 54 55 57 60 61 58 59 63
23 25 24 18 15 13 14 16 19 21 24 28 31 35 34 29 27 27 25 22 21 16 11 10 9 18 18 21 21 20 24 27 34 38 41 42 53 48 53 54 56 64 66 63 63
26 24 23 19 17 17 16 16 19 20 23 28 32 35 33 28 25 26 26 23 17 15 13 12 12 14 14 12 17 13 20 19 19 19 19 14 18 26 33 23 38 51 62 62 65
24 24 26 18 18 18 18 17 18 18 23 28 33 36 30 25 23 25 25 21 18 14 14 12 9 14 14 12 11 11 16 15 17 17 17 11 16 19 24 33 31 37 39 59 67
25 25 24 19 18 16 17 17 15 15 22 27 32 33 25 21 23 25 24 24 18 13 13 11 12 13 11 12 12 8 9 17 22 25 27 25 24 24 33 19 16 25 28 33 47
24 23 20 19 19 16 16 15 14 15 20 26 29 29 20 20 23 25 25 25 20 12 14 13 13 13 15 13 15 17 19 22 25 26 23 28 28 30 29 15 12 12 10 12 22
23 22 17 19 20 17 17 16 14 14 18 23 23 25 19 19 22 24 27 26 20 11 12 14 12 8 12 14 15 17 19 23 25 18 18 24 27 31 20 11 8 10 14 8 13
24 22 21 20 21 19 18 18 13 12 16 20 20 22 20 20 22 22 24 26 24 10 11 12 12 12 14 18 17 18 22 17 15 11 10 16 21 19 17 23 5 2 15 9 11
24 21 23 20 21 20 19 18 13 11 11 13 17 20 20 19 22 22 22 24 25 11 11 11 11 9 10 15 15 17 20 17 15 13 14 13 13 10 14 16 16 15 15 6 17
27 23 24 22 21 22 21 21 14 11 9 10 13 18 19 19 21 22 22 23 23 18 12 13 10 8 9 11 16 17 16 16 13 12 15 16 13 10 17 18 17 13 6 10 19
27 28 27 20 24 23 23 23 16 10 8 7 10 15 17 17 19 21 22 21 22 19 14 12 11 12 11 11 11 14 11 15 14 17 16 19 16 16 17 16 14 11 10 3 14
Wind_Direction
326 332 336 336 333 328 324 319 313 305 302 298 293 288 283 276 271 266 264 264 263 263 260 259 258 256 250 244 240 238 238 233 236 236 229 238 240 236 232 230 230 229 223 223 223
324 331 336 335 334 329 326 319 314 308 303 299 295 289 287 284 280 277 272 266 264 263 257 257 258 252 253 246 245 239 241 234 235 234 231 236 238 244 238 233 228 230 222 222 221
321 327 332 335 337 333 325 320 312 307 302 299 296 293 289 284 281 279 275 270 263 261 261 258 258 252 249 248 247 247 244 239 234 233 231 231 235 240 238 239 234 230 228 227 222
321 326 336 336 335 332 325 318 313 311 309 303 298 296 294 292 287 283 278 276 270 262 260 259 259 254 249 250 242 242 245 239 236 231 230 233 233 238 238 239 240 237 233 230 230
326 329 332 336 337 332 324 319 319 318 314 308 305 307 305 298 294 288 281 273 269 266 261 260 258 255 250 249 247 245 243 239 235 233 233 235 235 237 238 238 238 236 236 236 233
321 327 331 337 330 325 320 317 320 318 317 317 319 322 319 314 303 295 291 283 274 268 266 261 262 258 253 248 246 245 245 243 239 236 233 233 234 237 237 239 241 237 236 237 235
322 326 330 329 326 322 318 322 321 321 324 326 326 324 323 315 310 306 302 293 283 276 267 264 260 258 256 250 246 245 241 238 235 232 229 232 230 235 234 235 236 235 236 238 238
320 331 329 329 325 322 320 319 322 327 327 330 328 323 319 313 306 301 295 292 286 279 273 266 257 254 253 252 247 246 245 240 236 234 231 229 226 233 233 233 237 236 233 231 234
323 328 325 324 321 322 322 324 328 328 332 330 324 321 316 308 300 295 292 286 281 274 271 268 262 254 249 251 251 248 248 247 243 239 236 231 232 229 235 232 235 236 237 235 231
321 323 320 321 320 325 324 328 328 329 332 331 325 324 317 306 300 295 292 286 282 278 269 262 252 253 259 250 250 252 252 252 251 248 247 243 242 235 237 237 237 237 236 237 234
317 319 322 318 321 327 327 328 326 333 335 332 335 331 322 318 312 305 300 293 288 283 279 272 264 257 254 252 256 251 250 251 251 249 244 242 242 241 238 238 238 238 240 239 239
314 316 322 318 321 328 329 320 327 337 336 339 338 332 326 326 324 319 314 303 296 293 291 283 276 270 263 259 256 256 254 252 252 251 251 247 248 248 245 242 239 240 241 240 240
312 313 320 319 319 324 324 318 329 337 344 351 344 334 326 322 320 321 317 310 303 293 289 286 282 276 269 266 261 260 259 257 259 257 256 255 250 248 244 243 241 239 241 242 241
309 310 317 321 314 318 319 321 334 343 349 349 350 341 333 328 323 322 320 313 299 290 283 280 278 274 274 272 265 259 266 266 259 252 253 253 254 246 252 252 249 242 238 240 241
309 308 319 316 309 313 312 317 333 341 343 345 344 337 330 324 320 321 321 319 308 294 288 287 279 279 278 273 271 276 274 266 255 253 253 253 257 252 257 265 259 259 249 239 236
302 305 316 310 298 297 302 313 328 333 338 341 337 331 328 326 324 322 320 317 313 309 305 301 288 285 285 283 282 283 284 278 271 266 261 263 266 262 265 263 256 249 249 243 234
296 304 310 301 291 285 294 313 321 329 338 341 339 330 330 331 328 328 326 321 318 312 308 282 283 291 288 285 284 281 278 276 274 271 270 272 271 264 263 261 258 254 250 250 240
292 302 308 294 283 275 286 304 321 328 333 342 337 332 331 330 334 333 333 328 324 316 311 295 291 286 283 287 285 293 297 295 300 293 291 288 276 275 264 260 256 257 255 250 246
290 297 298 287 275 261 281 297 318 327 332 341 340 336 337 336 337 339 340 332 321 306 302 304 325 317 317 309 317 321 337 335 327 328 316 303 290 283 282 268 265 262 253 245 239
283 293 294 280 268 261 277 291 311 329 333 341 341 339 341 340 341 344 344 337 318 299 306 309 320 323 327 341 352 320 324 350 330 320 321 323 315 315 294 268 271 254 257 244 234
286 290 284 272 263 258 271 284 304 331 337 340 345 343 347 345 345 346 345 340 321 300 309 314 327 339 345 1 329 332 321 336 327 332 324 327 333 336 336 311 273 263 263 242 228
285 279 277 264 258 255 266 280 301 328 336 336 349 351 353 351 349 347 345 342 330 301 321 324 332 342 360 350 331 326 321 318 325 329 331 331 352 356 345 308 295 271 194 202 205
278 273 276 259 256 255 258 273 294 321 332 340 352 355 349 349 348 346 343 344 333 286 312 320 317 341 357 354 348 340 339 336 339 341 339 328 354 355 2 354 229 150 159 181 194
266 269 270 260 255 254 256 266 281 313 326 333 353 354 343 342 344 343 342 345 340 284 293 312 316 352 0 347 0 3 7 10 6 354 340 339 358 3 12 24 34 162 120 162 194
261 264 271 260 255 251 251 263 271 299 319 337 354 3 341 337 338 340 342 342 342 306 278 303 311 342 359 344 3 9 7 4 5 0 13 8 7 26 17 3 21 45 133 118 173
257 257 260 268 260 252 245 258 267 282 306 337 359 12 350 335 334 339 339 343 345 334 273 293 321 333 335 346 1 357 355 0 346 10 21 19 25 4 331 0 9 50 193 144 203
245 251 257 265 262 249 247 252 258 264 293 327 0 15 360 345 334 338 341 345 349 339 293 290 316 330 324 343 356 4 343 339 358 0 17 26 25 12 11 10 10 35 52 142 187